Time,TemperatureF,DewpointF,PressureIn,WindDirection,WindDirectionDegrees,WindSpeedMPH,WindSpeedGustMPH,Humidity,HourlyPrecipIn,Conditions,Clouds,dailyrainin,SoftwareType,DateUTC
2013-08-06 00:00:00,62.0,-99.9,29.83,SE,130,2.0,-999.0,-999,-99.99,,,-99.99,,2013-08-06 05:00:00,
2013-08-06 00:32:00,62.0,-99.9,29.83,SE,130,2.0,-999.0,-999,-99.99,,,-99.99,,2013-08-06 05:32:00,
2013-08-06 00:43:00,62.0,-99.9,29.83,SE,130,2.0,-999.0,-999,-99.99,,,-99.99,,2013-08-06 05:43:00,
2013-08-06 00:53:00,62.0,-99.9,29.83,SE,130,2.0,-999.0,-999,-99.99,,,-99.99,,2013-08-06 05:53:00,
2013-08-06 01:00:00,62.0,-99.9,29.84,South,190,1.0,-999.0,-999,-99.99,,,-99.99,,2013-08-06 06:00:00,
2013-08-06 01:32:00,62.0,-99.9,29.84,South,190,1.0,-999.0,-999,-99.99,,,-99.99,,2013-08-06 06:32:00,
2013-08-06 01:43:00,62.0,-99.9,29.84,South,190,1.0,-999.0,-999,-99.99,,,-99.99,,2013-08-06 06:43:00,
2013-08-06 01:52:00,62.0,-99.9,29.84,South,190,1.0,-999.0,-999,-99.99,,,-99.99,,2013-08-06 06:52:00,
2013-08-06 02:00:00,62.0,-99.9,29.83,SE,140,2.0,-999.0,-999,-99.99,,,-99.99,,2013-08-06 07:00:00,
2013-08-06 02:32:00,62.0,-99.9,29.83,SE,140,2.0,-999.0,-999,-99.99,,,-99.99,,2013-08-06 07:32:00,
2013-08-06 02:44:00,62.0,-99.9,29.83,SE,140,2.0,-999.0,-999,-99.99,,,-99.99,,2013-08-06 07:44:00,
2013-08-06 02:53:00,62.0,-99.9,29.83,SE,140,2.0,-999.0,-999,-99.99,,,-99.99,,2013-08-06 07:53:00,
2013-08-06 03:00:00,61.0,-99.9,29.80,South,190,5.0,-999.0,-999,-99.99,,,-99.99,,2013-08-06 08:00:00,
2013-08-06 03:33:00,61.0,-99.9,29.80,South,190,5.0,-999.0,-999,-99.99,,,-99.99,,2013-08-06 08:33:00,
2013-08-06 03:43:00,61.0,-99.9,29.80,South,190,5.0,-999.0,-999,-99.99,,,-99.99,,2013-08-06 08:43:00,
2013-08-06 03:52:00,61.0,-99.9,29.80,South,190,5.0,-999.0,-999,-99.99,,,-99.99,,2013-08-06 08:52:00,
2013-08-06 04:00:00,60.0,-99.9,29.81,SW,220,3.0,-999.0,-999,-99.99,,,-99.99,,2013-08-06 09:00:00,
2013-08-06 04:33:00,60.0,-99.9,29.81,SW,220,3.0,-999.0,-999,-99.99,,,-99.99,,2013-08-06 09:33:00,
2013-08-06 04:43:00,60.0,-99.9,29.81,SW,220,3.0,-999.0,-999,-99.99,,,-99.99,,2013-08-06 09:43:00,
2013-08-06 04:52:00,60.0,-99.9,29.81,SW,220,3.0,-999.0,-999,-99.99,,,-99.99,,2013-08-06 09:52:00,
2013-08-06 06:00:00,60.0,-99.9,29.82,SW,220,6.0,-999.0,-999,-99.99,,,-99.99,,2013-08-06 11:00:00,
2013-08-06 06:32:00,60.0,-99.9,29.82,SW,220,6.0,-999.0,-999,-99.99,,,-99.99,,2013-08-06 11:32:00,
2013-08-06 06:43:00,60.0,-99.9,29.82,SW,220,6.0,-999.0,-999,-99.99,,,-99.99,,2013-08-06 11:43:00,
2013-08-06 06:53:00,60.0,-99.9,29.82,SW,220,6.0,-999.0,-999,-99.99,,,-99.99,,2013-08-06 11:53:00,
2013-08-06 07:00:00,60.0,-99.9,29.82,West,280,5.0,-999.0,-999,-99.99,,,-99.99,,2013-08-06 12:00:00,
2013-08-06 07:52:00,60.0,-99.9,29.82,West,280,5.0,-999.0,-999,-99.99,,,-99.99,,2013-08-06 12:52:00,
2013-08-06 08:00:00,64.0,-99.9,29.83,West,280,3.0,-999.0,-999,-99.99,,,-99.99,,2013-08-06 13:00:00,
2013-08-06 08:32:00,64.0,-99.9,29.83,West,280,3.0,-999.0,-999,-99.99,,,-99.99,,2013-08-06 13:32:00,
2013-08-06 08:42:00,64.0,-99.9,29.83,West,280,3.0,-999.0,-999,-99.99,,,-99.99,,2013-08-06 13:42:00,
2013-08-06 08:53:00,64.0,-99.9,29.83,West,280,3.0,-999.0,-999,-99.99,,,-99.99,,2013-08-06 13:53:00,
2013-08-06 09:00:00,64.0,-99.9,29.81,South,180,3.0,-999.0,-999,-99.99,,,-99.99,,2013-08-06 14:00:00,
2013-08-06 09:32:00,64.0,-99.9,29.81,South,180,3.0,-999.0,-999,-99.99,,,-99.99,,2013-08-06 14:32:00,
2013-08-06 09:42:00,64.0,-99.9,29.81,South,180,3.0,-999.0,-999,-99.99,,,-99.99,,2013-08-06 14:42:00,
2013-08-06 09:53:00,64.0,-99.9,29.81,South,180,3.0,-999.0,-999,-99.99,,,-99.99,,2013-08-06 14:53:00,
2013-08-06 11:00:00,70.0,-99.9,29.81,WSW,250,7.0,-999.0,-999,-99.99,,,-99.99,,2013-08-06 16:00:00,
2013-08-06 11:32:00,70.0,-99.9,29.81,WSW,250,7.0,-999.0,-999,-99.99,,,-99.99,,2013-08-06 16:32:00,
2013-08-06 11:43:00,70.0,-99.9,29.81,WSW,250,7.0,-999.0,-999,-99.99,,,-99.99,,2013-08-06 16:43:00,
2013-08-06 11:52:00,70.0,-99.9,29.81,WSW,250,7.0,-999.0,-999,-99.99,,,-99.99,,2013-08-06 16:52:00,
2013-08-06 12:00:00,67.0,-99.9,29.81,SSE,160,6.0,-999.0,-999,-99.99,,,-99.99,,2013-08-06 17:00:00,
2013-08-06 12:32:00,67.0,-99.9,29.81,SSE,160,6.0,-999.0,-999,-99.99,,,-99.99,,2013-08-06 17:32:00,
2013-08-06 12:44:00,67.0,-99.9,29.81,SSE,160,6.0,-999.0,-999,-99.99,,,-99.99,,2013-08-06 17:44:00,
2013-08-06 12:52:00,67.0,-99.9,29.81,SSE,160,6.0,-999.0,-999,-99.99,,,-99.99,,2013-08-06 17:52:00,
2013-08-06 14:00:00,61.0,-99.9,29.80,NW,310,6.0,-999.0,-999,-99.99,,,-99.99,,2013-08-06 19:00:00,
2013-08-06 14:32:00,61.0,-99.9,29.80,NW,310,6.0,-999.0,-999,-99.99,,,-99.99,,2013-08-06 19:32:00,
2013-08-06 14:42:00,61.0,-99.9,29.80,NW,310,6.0,-999.0,-999,-99.99,,,-99.99,,2013-08-06 19:42:00,
2013-08-06 14:52:00,61.0,-99.9,29.80,NW,310,6.0,-999.0,-999,-99.99,,,-99.99,,2013-08-06 19:52:00,
2013-08-06 15:00:00,61.0,-99.9,29.79,East,100,8.0,-999.0,-999,-99.99,,,-99.99,,2013-08-06 20:00:00,
2013-08-06 15:44:00,61.0,-99.9,29.79,East,100,8.0,-999.0,-999,-99.99,,,-99.99,,2013-08-06 20:44:00,
2013-08-06 15:52:00,61.0,-99.9,29.79,East,100,8.0,-999.0,-999,-99.99,,,-99.99,,2013-08-06 20:52:00,
2013-08-06 16:00:00,63.0,-99.9,29.79,West,280,7.0,-999.0,-999,-99.99,,,-99.99,,2013-08-06 21:00:00,
2013-08-06 16:32:00,63.0,-99.9,29.79,West,280,7.0,-999.0,-999,-99.99,,,-99.99,,2013-08-06 21:32:00,
2013-08-06 16:43:00,63.0,-99.9,29.79,West,280,7.0,-999.0,-999,-99.99,,,-99.99,,2013-08-06 21:43:00,
2013-08-06 16:53:00,63.0,-99.9,29.79,West,280,7.0,-999.0,-999,-99.99,,,-99.99,,2013-08-06 21:53:00,
2013-08-06 17:00:00,64.0,-99.9,29.79,WSW,240,7.0,-999.0,-999,-99.99,,,-99.99,,2013-08-06 22:00:00,
2013-08-06 17:32:00,64.0,-99.9,29.79,WSW,240,7.0,-999.0,-999,-99.99,,,-99.99,,2013-08-06 22:32:00,
2013-08-06 17:43:00,64.0,-99.9,29.79,WSW,240,7.0,-999.0,-999,-99.99,,,-99.99,,2013-08-06 22:43:00,
2013-08-06 17:53:00,64.0,-99.9,29.79,WSW,240,7.0,-999.0,-999,-99.99,,,-99.99,,2013-08-06 22:53:00,
2013-08-06 18:00:00,63.0,-99.9,29.79,SSW,200,6.0,-999.0,-999,-99.99,,,-99.99,,2013-08-06 23:00:00,
2013-08-06 18:43:00,63.0,-99.9,29.79,SSW,200,6.0,-999.0,-999,-99.99,,,-99.99,,2013-08-06 23:43:00,
2013-08-06 18:52:00,63.0,-99.9,29.79,SSW,200,6.0,-999.0,-999,-99.99,,,-99.99,,2013-08-06 23:52:00,
2013-08-06 23:00:00,57.0,-99.9,29.78,SSE,160,8.0,-999.0,-999,-99.99,,,-99.99,,2013-08-07 04:00:00,